Regional Weather Roundup
Issued by NWS Goodland, KS

Home | Current Version | Previous Version | Graphics & Text | Print | Product List | Glossary On
Versions: 1 2 3 4 5 6 7 8 9 10 11 12 13 14 15 16 17 18 19 20 21 22 23 24 25 26 27 28 29 30 31 32 33 34 35 36 37 38 39 40 41 42 43 44 45 46 47 48 49 50
000
ASUS43 KGLD 240559
RWRGLD

GOODLAND FORECAST AREA HOURLY WEATHER ROUNDUP
NATIONAL WEATHER SERVICE GOODLAND KS
1100 PM MST MON JAN 23 2017

...OFFICIAL OBSERVATIONS...

CITY           SKY/WX    TMP DP  RH WIND       PRES   REMARKS
GOODLAND KS    PTCLDY    33  30  88 S12       29.48R
HILL CITY KS   CLEAR     34  32  92 E8        29.56F
IMPERIAL NEB   CLEAR     31  28  89 E8        29.54F
MCCOOK NEB     CLEAR     32  30  92 E13       29.55F
AKRON CO       CLOUDY    30  24  78 E10       29.48F
BURLINGTON CO  CLEAR     29  25  85 W7        29.47F
LIMON CO       CLOUDY    33  26  75 N6        29.48R
$$

...UNOFFICIAL OBSERVATIONS...

CITY           SKY/WX    TMP DP  RH WIND       PRES   REMARKS
LENORA KS        N/A     30  32 100 E7          N/A
NORTON KS      CLEAR     34  28  80 E13       29.56F
SHARON SPRINGS   N/A     33  27  80 CALM        N/A
TRENTON NEB      N/A     33  32  96 E8          N/A
KIT CARSON CO    N/A     32  25  76 CALM        N/A
$$




USA.gov is the U.S. government's official web portal to all federal, state and local government web resources and services.